Barking Sands, HI

4:59 PM HST on April 19, 2018 (GMT -1000)
Barking Sands PMRF

Weather History for PHBK - August, 2013

Change the Weather History Date:

Tuesday, August 6, 2013

  Actual Average Record
Temperature  
Mean Temperature 80 °F -  
Max Temperature 86 °F 89 °F 92 °F (1959)
Min Temperature 75 °F 67 °F 64 °F (1970)
Cooling Degree Days 16    
Growing Degree Days 30 (Base 50)    
Moisture  
Dew Point 66 °F    
Average Humidity 64    
Maximum Humidity 74    
Minimum Humidity 55    
Precipitation  
Precipitation 0.00 in - - ()
Sea Level Pressure  
Sea Level Pressure 30.01 in    
Wind  
Wind Speed 4 mph (West)    
Max Wind Speed 14 mph    
Max Gust Speed -    
Visibility 10 miles    
Events      
Averages and records for this station are not official NWS values.
T = Trace of Precipitation, MM = Missing Value Source: NWS Daily Summary

Daily Weather History Graph

Daily Weather History Graph

Search for Another Location

Airport or City:

Astronomy

Aug. 06, 2013 Rise Set
Actual Time 6:13 AM HST 7:16 PM HST
Civil Twilight 5:49 AM HST 7:39 PM HST
Nautical Twilight 5:21 AM HST 8:07 PM HST
Astronomical Twilight 4:53 AM HST 8:36 PM HST
Moon 6:07 AM HST (8/6) 7:08 PM HST (8/6)
Length of Visible Light 13h 49m
Length of Day
13h 02m
New Moon, 0% of the Moon is Illuminated
Aug 6
New Moon
Aug 14
First Quarter
Aug 20
Full
Aug 27
Last Quarter
Sep 5
New

Hourly Weather History & Observations

Time (HST) Temp. Heat Index Dew Point Humidity Pressure Visibility Wind Dir Wind Speed Gust Speed Precip Events Conditions
12:56 AM 75.9 °F - 64.0 °F 67% 30.01 in 10.0 mi Calm Calm - N/A   Overcast
1:56 AM 77.0 °F - 64.9 °F 66% 30.00 in 10.0 mi East 5.8 mph - N/A   Overcast
2:56 AM 77.0 °F - 66.0 °F 69% 29.99 in 10.0 mi Calm Calm - N/A   Overcast
3:56 AM 77.0 °F - 66.0 °F 69% 29.99 in 10.0 mi Calm Calm - N/A   Overcast
4:56 AM 75.9 °F - 66.0 °F 71% 29.99 in 10.0 mi SE 3.5 mph - N/A   Overcast
5:56 AM 75.9 °F - 66.9 °F 74% 29.99 in 10.0 mi Calm Calm - N/A   Scattered Clouds
6:56 AM 75.9 °F - 66.0 °F 71% 30.01 in 10.0 mi Calm Calm - N/A   Clear
7:56 AM 80.1 °F 82.9 °F 69.1 °F 69% 30.02 in 10.0 mi Calm Calm - N/A   Clear
8:56 AM 80.1 °F 82.9 °F 69.1 °F 69% 30.03 in 10.0 mi West 4.6 mph - N/A   Clear
9:56 AM 81.0 °F 83.8 °F 68.0 °F 65% 30.04 in 10.0 mi SW 5.8 mph - N/A   Mostly Cloudy
10:56 AM 82.9 °F 85.0 °F 66.0 °F 56% 30.03 in 10.0 mi West 5.8 mph - N/A   Overcast
11:56 AM 84.9 °F 87.6 °F 66.9 °F 55% 30.02 in 10.0 mi NW 11.5 mph - N/A   Clear
12:56 PM 84.9 °F 88.8 °F 69.1 °F 59% 30.01 in 10.0 mi NW 13.8 mph - N/A   Clear
1:56 PM 86.0 °F 89.4 °F 68.0 °F 55% 30.00 in 10.0 mi WNW 12.7 mph - N/A   Clear
2:56 PM 84.0 °F 87.0 °F 68.0 °F 58% 29.98 in 10.0 mi WNW 6.9 mph - N/A   Clear
3:56 PM 84.0 °F 86.5 °F 66.9 °F 56% 29.97 in 10.0 mi WSW 6.9 mph - N/A   Clear
4:56 PM 84.9 °F 87.6 °F 66.9 °F 55% 29.97 in 10.0 mi SSW 11.5 mph - N/A   Clear
5:56 PM 84.9 °F 87.6 °F 66.9 °F 55% 29.98 in 10.0 mi SSW 11.5 mph - N/A   Partly Cloudy
6:56 PM 82.0 °F 84.9 °F 68.0 °F 62% 29.99 in 10.0 mi SSW 8.1 mph - N/A   Partly Cloudy
7:56 PM 82.0 °F 84.1 °F 66.0 °F 58% 30.01 in 10.0 mi NNW 8.1 mph - N/A   Partly Cloudy
8:56 PM 78.1 °F - 66.9 °F 68% 30.03 in 10.0 mi ENE 5.8 mph - N/A   Clear
9:56 PM 75.9 °F - 64.0 °F 67% 30.04 in 10.0 mi Calm Calm - N/A   Clear
10:56 PM 75.9 °F - 63.0 °F 64% 30.04 in 10.0 mi NE 3.5 mph - N/A   Clear
11:56 PM 75.0 °F - 63.0 °F 66% 30.04 in 10.0 mi ENE 4.6 mph - N/A   Clear